TEVEL2-9

Last updated on Wed Sep 09 2026 00:03:15 GMT+0000 (Coordinated Universal Time)

1 63237U 25052AD 26251.50545205 .00018117 00000+0 54785-3 0 9996 2 63237 97.3816 146.7562 0005332 183.1794 176.9416 15.34255136 82799
UTC large
Height (km)
Speed (km/s)
/
Latitude / Longitude
Inclination (degrees)
Orbital Period (minutes)
Azimuth
Elevation
Range (km)
Doppler Factor

Next 0 passes for location: London (51.5072 / 0.1276)

No passes found over London.
TEVEL2-9